OBJECT B, 67161

Orbit data source: Space-Track

You're viewing an Uncataloged Satellite

Recently launched and/or uncataloged satellites may have evolving metadata. Metadata may include but not limited to: Owner, Maufacturer, Bus, Motor, and Mission.

OBJECT B, 67161 is a satellite owned by Arianespace (ESA) that was launched on Wed, 17 Dec 2025 UTC launched from the French Guiana (FRGUI). Unknown objects in Earth's orbit typically refer to objects detected orbiting the Earth but have not yet been identified or cataloged. These objects could be anything from previously untracked satellites, spent rocket stages, debris from satellite collisions, or even natural meteoroids temporarily captured by Earth's gravity.

Loading next visibility...
Identifier
67161, 2025-302B
Orbit
Active
Country
Flag of ESAESA
Related business
Manufacturer
ARIB
Mission
Spacecraft
Bus & Motor
ULPM, VINCI
Mass
6,000 kg wet, 6,000 kg dry
Launch date (UTC)
2025-12-17 (6 months ago)
Launch vehicle
Unknown
Launch site
French Guiana (FRGUI)
Object type
Unknown
Shape & HBR
Cyl, 1.1 m
Radar Cross Section
62.345 m², Large (>1 m²)

Expand to show TLE details & history
Last TLE update: 3 days ago

TLE from 3 days ago
0 OBJECT B
1 67161U 25302B   26168.67207076 -.00000012  00000-0  00000-0 0  9995
2 67161  54.3428 101.8839 0005103 276.2736  83.6383  1.72972428  3175
Epoch: 2026-06-17T16:07Z
TLE epoch observation values (Epoch: 2026-06-17T16:07:46.913Z)
Latitude
-0.00004°
Longitude
-45.99117°
Altitude
22,935.075 km
Speed
3.688 km/s
True Right ascension
06h 47m 31s
True Declination
0° 00' 00"
Sunlit
Object was in daylight at epoch
Visualization orbit readout
Latitude
Unknown
Longitude
Unknown
Altitude
Unknown
Speed
Unknown
Apparent Right ascension
Unknown
Apparent Declination
Unknown
Sunlit
N/A
Visualization observer readout
Local Sidereal Time
07:19:03
Azimuth
Unknown
Elevation
Unknown
Doppler factor
Unknown
Orbital elements
Apogee altitude
22,951.451 km
Perigee altitude
22,921.533 km
Semi-major axis
29,314.629 km
Eccentricity
0.00051
Inclination
54.3428°
RAAN
101.8839°
Arg. of periapsis
276.2736°
True anomaly
83.69642°
Mean anomaly
83.6383°
Eccentric anomaly
83.66736°
Mean motion
0.43243 °/min
Orbital period
832.5 mins
BSTAR
0
Loading maneuver chart data...
Computing Atmospheric mass density...
Loading historical data...
Loading historical data...
Loading historical data...
Loading historical data...
Loading historical data...
Loading historical data...
Loading historical data...
Other satellites on launch #302 in the year 2025 (2025-12-17 UTC)

Documentation

Showing up to 5 results
|